Location: Utrecht
(52.0907°N, 5.1214°E)
Time: 05:29:08
(UTC+02:00)

AO-91 - Visible Passes

Search period start: 29 June 2022 00:00
Search period end: 09 July 2022 00:00
Orbit: 450 x 799 km, 97.7° (Epoch: 28 June)

Date Brightness Start Highest point End Pass type
(mag) Time Alt. Az. Time Alt. Az. Time Alt. Az.
29 Jun ? 00:38:37 10° NNE 00:42:12 82° ESE 00:44:13 23° S visible
29 Jun ? 02:16:50 10° NW 02:17:50 11° NW 02:18:50 10° WNW visible
29 Jun ? 23:22:47 10° ENE 23:24:06 12° E 23:25:23 10° ESE visible
30 Jun ? 00:57:23 10° N 01:00:52 60° WNW 01:03:04 20° SSW visible
30 Jun ? 23:40:32 10° NE 23:43:00 18° E 23:44:40 13° SE visible
01 Jul ? 01:16:14 10° N 01:19:29 36° WNW 01:21:55 15° SW visible
01 Jul ? 23:58:48 10° NE 00:01:49 28° E 00:03:31 18° SE visible
02 Jul ? 01:35:13 10° N 01:38:04 24° WNW 01:40:46 10° WSW visible
03 Jul ? 00:17:17 10° NNE 00:20:36 45° E 00:22:22 23° SSE visible
03 Jul ? 01:54:22 10° NNW 01:56:34 16° WNW 01:58:44 10° W visible
04 Jul ? 00:35:52 10° NNE 00:39:19 77° ESE 00:41:12 24° S visible
04 Jul ? 02:14:04 10° NW 02:15:03 11° WNW 02:16:00 10° WNW visible
04 Jul ? 23:20:21 10° ENE 23:21:13 11° E 23:22:04 10° ESE visible
05 Jul ? 00:54:35 10° N 00:57:58 63° WNW 01:00:03 21° SSW visible
05 Jul ? 23:37:47 10° NE 23:40:05 17° E 23:41:37 13° ESE visible
06 Jul ? 01:13:23 10° N 01:16:35 38° WNW 01:18:53 16° SW visible
06 Jul ? 23:55:59 10° NE 23:58:53 26° E 00:00:27 18° SE visible
07 Jul ? 01:32:19 10° N 01:35:09 25° WNW 01:37:42 11° WSW visible
08 Jul ? 00:14:23 10° NNE 00:17:38 42° E 00:19:17 24° SSE visible
08 Jul ? 01:51:25 10° NNW 01:53:39 17° WNW 01:55:54 10° WSW visible
